N7BDR Weather Reports


Display with metric or nautical units.
time (UTC)temp
F
wind
direction
speed
MPH
gust
MPH
rain 1hr
in
rain 24hr
in
rain mn
in
humidity
%
barometer
mb
20260904175611 82 167 7.0 20.0 0.00 0.00 0.00 24 1003.9
20260904175118 82 263 8.0 20.0 0.00 0.00 0.00 24 1003.9
20260904174623 82 174 8.0 20.0 0.00 0.00 0.00 24 1004.0
20260904172902 81 197 7.0 20.0 0.00 0.00 0.00 25 1004.2
20260904172348 81 154 7.0 20.0 0.00 0.00 0.00 25 1004.2
20260904171832 81 222 7.0 20.0 0.00 0.00 0.00 25 1004.2
20260904171338 81 272 6.0 17.0 0.00 0.00 0.00 25 1004.3
20260904170820 81 170 7.0 17.0 0.00 0.00 0.00 25 1004.2
20260904170308 81 246 7.0 16.0 0.00 0.00 0.00 24 1004.3
20260904165151 80 182 6.0 16.0 0.00 0.00 0.00 25 1004.4
20260904164659 80 194 5.0 18.0 0.00 0.00 0.00 24 1004.4
20260904164153 80 182 6.0 18.0 0.00 0.00 0.00 24 1004.4
20260904163700 80 163 6.0 20.0 0.00 0.00 0.00 25 1004.5
20260904163209 80 175 6.0 20.0 0.00 0.00 0.00 24 1004.6
20260904162706 79 233 6.0 20.0 0.00 0.00 0.00 24 1004.5
20260904162215 79 180 5.0 20.0 0.00 0.00 0.00 24 1004.5
20260904161724 79 185 5.0 17.0 0.00 0.00 0.00 25 1004.6
20260904155922 78 149 5.0 19.0 0.00 0.00 0.00 23 1004.7
20260904155413 78 170 5.0 19.0 0.00 0.00 0.00 24 1004.7
20260904153639 77 227 5.0 15.0 0.00 0.00 0.00 25 1004.7
20260904153127 77 222 5.0 15.0 0.00 0.00 0.00 25 1004.7
20260904152025 76 187 5.0 15.0 0.00 0.00 0.00 25 1004.7
20260904151526 76 163 4.0 14.0 0.00 0.00 0.00 25 1004.7
20260904150352 75 163 5.0 14.0 0.00 0.00 0.00 24 1004.8
20260904145232 75 239 5.0 14.0 0.00 0.00 0.00 23 1004.6
20260904144722 75 184 5.0 14.0 0.00 0.00 0.00 24 1004.6
20260904144222 74 263 5.0 13.0 0.00 0.00 0.00 25 1004.6
20260904143711 74 167 4.0 13.0 0.00 0.00 0.00 24 1004.6
20260904142553 73 256 4.0 13.0 0.00 0.00 0.00 24 1004.4
20260904142042 73 262 4.0 13.0 0.00 0.00 0.00 24 1004.4
20260904141526 73 178 4.0 12.0 0.00 0.00 0.00 25 1004.4
20260904141012 73 276 4.0 12.0 0.00 0.00 0.00 24 1004.5
20260904140505 72 206 3.0 12.0 0.00 0.00 0.00 24 1004.5
20260904135946 72 244 4.0 12.0 0.00 0.00 0.00 24 1004.5
20260904135437 72 265 3.0 12.0 0.00 0.00 0.00 23 1004.4
20260904134929 71 175 3.0 11.0 0.00 0.00 0.00 23 1004.3
20260904134425 71 269 4.0 11.0 0.00 0.00 0.00 23 1004.2
20260904133916 71 207 4.0 12.0 0.00 0.00 0.00 23 1004.2
20260904133418 71 231 4.0 12.0 0.00 0.00 0.00 23 1004.2
20260904132922 71 214 4.0 12.0 0.00 0.00 0.00 22 1004.1
20260904131812 71 167 4.0 13.0 0.00 0.00 0.00 22 1004.0
20260904130059 70 253 4.0 14.0 0.00 0.00 0.00 21 1003.9
20260904125547 71 244 5.0 14.0 0.00 0.00 0.00 21 1003.8
20260904125048 71 211 5.0 12.0 0.00 0.00 0.00 20 1003.7
20260904124536 71 194 6.0 15.0 0.00 0.00 0.00 20 1003.7
20260904124027 71 189 6.0 15.0 0.00 0.00 0.00 20 1003.7
20260904123511 71 256 6.0 15.0 0.00 0.00 0.00 19 1003.6
20260904123005 71 181 5.0 15.0 0.00 0.00 0.00 20 1003.5
20260904122453 71 226 5.0 15.0 0.00 0.00 0.00 20 1003.4
20260904121958 71 161 6.0 15.0 0.00 0.00 0.00 20 1003.5
20260904121449 71 231 5.0 14.0 0.00 0.00 0.00 20 1003.3
20260904120936 71 268 5.0 14.0 0.00 0.00 0.00 20 1003.3
20260904120430 72 241 5.0 14.0 0.00 0.00 0.00 20 1003.3
20260904115924 72 161 5.0 12.0 0.00 0.00 0.00 20 1003.2
20260904114800 72 268 4.0 15.0 0.00 0.00 0.00 19 1003.2
20260904114302 72 186 4.0 15.0 0.00 0.00 0.00 19 1003.2
20260904113800 72 186 4.0 15.0 0.00 0.00 0.00 18 1003.2
20260904113306 72 247 4.0 15.0 0.00 0.00 0.00 18 1003.2
20260904112125 72 263 5.0 15.0 0.00 0.00 0.00 16 1003.2
20260904111617 72 181 5.0 15.0 0.00 0.00 0.00 17 1003.2
20260904111112 72 208 5.0 15.0 0.00 0.00 0.00 16 1003.2
20260904110617 72 224 5.0 15.0 0.00 0.00 0.00 16 1003.3
20260904110113 72 320 5.0 16.0 0.00 0.00 0.00 16 1003.3
20260904105615 73 163 5.0 16.0 0.00 0.00 0.00 16 1003.1
20260904104506 72 181 5.0 16.0 0.00 0.00 0.00 17 1003.1
20260904104005 72 157 4.0 13.0 0.00 0.00 0.00 18 1003.0
20260904103453 72 249 4.0 13.0 0.00 0.00 0.00 18 1003.1
20260904102951 72 225 4.0 12.0 0.00 0.00 0.00 19 1003.0
20260904102455 72 236 4.0 12.0 0.00 0.00 0.00 19 1002.9
20260904102000 72 223 4.0 12.0 0.00 0.00 0.00 20 1002.9
20260904101502 72 171 4.0 11.0 0.00 0.00 0.00 20 1002.8
20260904101002 72 171 4.0 15.0 0.00 0.00 0.00 19 1002.8
20260904100456 72 258 4.0 15.0 0.00 0.00 0.00 19 1002.8
20260904094645 73 178 5.0 19.0 0.00 0.00 0.00 19 1002.7
20260904094134 73 206 4.0 13.0 0.00 0.00 0.00 19 1002.7
20260904093643 73 218 4.0 12.0 0.00 0.00 0.00 19 1002.7
20260904093126 73 166 3.0 14.0 0.00 0.00 0.00 19 1002.6
20260904092616 73 180 4.0 14.0 0.00 0.00 0.00 18 1002.6
20260904092118 73 246 5.0 14.0 0.00 0.00 0.00 18 1002.6
20260904091607 73 263 4.0 14.0 0.00 0.00 0.00 18 1002.6
20260904090440 72 184 4.0 11.0 0.00 0.00 0.00 19 1002.6
20260904085312 72 278 2.0 11.0 0.00 0.00 0.00 20 1002.6
20260904084759 72 178 2.0 9.0 0.00 0.00 0.00 20 1002.6
20260904083634 73 244 3.0 9.0 0.00 0.00 0.00 19 1002.6
20260904083128 73 163 3.0 9.0 0.00 0.00 0.00 19 1002.7
20260904082628 74 225 3.0 19.0 0.00 0.00 0.00 18 1002.5
20260904082131 74 197 4.0 19.0 0.00 0.00 0.00 18 1002.5
20260904080953 74 232 5.0 19.0 0.00 0.00 0.00 16 1002.5
20260904080438 74 230 4.0 16.0 0.00 0.00 0.00 17 1002.5
20260904075927 74 179 4.0 13.0 0.00 0.00 0.00 18 1002.4
20260904075426 73 244 4.0 13.0 0.00 0.00 0.00 18 1002.2
20260904074929 73 200 2.0 7.0 0.00 0.00 0.00 19 1002.1
20260904074433 73 225 2.0 13.0 0.00 0.00 0.00 20 1002.2
20260904073925 73 213 2.0 13.0 0.00 0.00 0.00 20 1002.2
20260904073432 74 162 2.0 13.0 0.00 0.00 0.00 19 1002.3
20260904072917 74 244 3.0 13.0 0.00 0.00 0.00 19 1002.2
20260904072424 74 229 2.0 10.0 0.00 0.00 0.00 20 1002.2
20260904071317 74 228 3.0 9.0 0.00 0.00 0.00 21 1002.0
20260904070801 74 231 2.0 9.0 0.00 0.00 0.00 21 1002.0
20260904070305 74 185 3.0 9.0 0.00 0.00 0.00 21 1002.0
20260904065748 74 192 2.0 9.0 0.00 0.00 0.00 21 1001.9
20260904065241 74 217 2.0 7.0 0.00 0.00 0.00 21 1001.8
20260904064747 75 232 3.0 7.0 0.00 0.00 0.00 21 1001.9
20260904064233 75 256 3.0 10.0 0.00 0.00 0.00 21 1001.8
20260904063730 75 155 4.0 10.0 0.00 0.00 0.00 20 1001.8
20260904062004 75 287 3.0 12.0 0.00 0.00 0.00 20 1001.6
20260904061508 75 256 3.0 12.0 0.00 0.00 0.00 19 1001.5
20260904061012 75 192 3.0 12.0 0.00 0.00 0.00 19 1001.5
20260904060458 75 220 3.0 9.0 0.00 0.00 0.00 19 1001.5
20260904060003 75 251 3.0 8.0 0.00 0.00 0.00 19 1001.5
20260904055505 75 187 3.0 8.0 0.00 0.00 0.00 20 1001.4
20260904054959 75 172 3.0 9.0 0.00 0.00 0.00 20 1001.4
20260904053810 75 185 3.0 11.0 0.00 0.00 0.00 20 1001.4
20260904053305 76 187 4.0 11.0 0.00 0.00 0.00 21 1001.2
20260904052748 76 181 4.0 11.0 0.00 0.00 0.00 21 1001.2
20260904052238 75 256 3.0 11.0 0.00 0.00 0.00 21 1001.2
20260904051724 75 215 2.0 7.0 0.00 0.00 0.00 21 1001.2
20260904051222 75 214 2.0 7.0 0.00 0.00 0.00 21 1001.2
20260904050716 75 255 2.0 7.0 0.00 0.00 0.00 20 1001.2
20260904050215 75 176 2.0 6.0 0.00 0.00 0.00 20 1001.2
20260904045702 75 277 2.0 6.0 0.00 0.00 0.00 20 1001.2
20260904045204 75 193 2.0 6.0 0.00 0.00 0.00 20 1001.3
20260904044651 74 264 2.0 6.0 0.00 0.00 0.00 20 1001.3
20260904043528 73 183 1.0 5.0 0.00 0.00 0.00 21 1001.3
20260904042406 72 227 0.0 4.0 0.00 0.00 0.00 22 1001.3
20260904041229 72 206 0.0 3.0 0.00 0.00 0.00 23 1001.2
20260904040737 72 256 0.0 1.0 0.00 0.00 0.00 23 1001.2
20260904040233 72 256 0.0 0.0 0.00 0.00 0.00 23 1001.1
20260904035731 73 256 0.0 2.0 0.00 0.00 0.00 22 1001.1
20260904035221 73 262 0.0 0.0 0.00 0.00 0.00 22 1001.1
20260904034705 74 262 0.0 0.0 0.00 0.00 0.00 21 1001.0
20260904034209 74 262 0.0 0.0 0.00 0.00 0.00 21 1001.0
20260904033704 75 262 0.0 0.0 0.00 0.00 0.00 20 1001.0
20260904033207 76 262 0.0 0.0 0.00 0.00 0.00 19 1001.1
20260904032656 76 261 0.0 0.0 0.00 0.00 0.00 19 1001.0
20260904032155 76 261 0.0 0.0 0.00 0.00 0.00 18 1001.0
20260904031031 76 256 0.0 2.0 0.00 0.00 0.00 18 1001.0
20260904030513 76 268 0.0 0.0 0.00 0.00 0.00 18 1001.0
20260904030014 77 282 0.0 0.0 0.00 0.00 0.00 18 1001.0
20260904025520 77 282 0.0 0.0 0.00 0.00 0.00 18 1000.9
20260904025030 78 282 0.0 0.0 0.00 0.00 0.00 17 1001.0
20260904024524 78 265 0.0 0.0 0.00 0.00 0.00 17 1000.9
20260904024009 79 261 0.0 3.0 0.00 0.00 0.00 17 1000.9
20260904023450 79 260 0.0 3.0 0.00 0.00 0.00 16 1000.8
20260904022931 80 278 0.0 3.0 0.00 0.00 0.00 16 1000.9
20260904022435 80 282 0.0 3.0 0.00 0.00 0.00 16 1000.8
20260904021933 80 278 0.0 2.0 0.00 0.00 0.00 16 1000.8
20260904020812 81 286 0.0 3.0 0.00 0.00 0.00 15 1000.8
20260904015006 82 257 2.0 8.0 0.00 0.00 0.00 15 1000.9
20260904013209 83 271 4.0 13.0 0.00 0.00 0.00 14 1001.0
20260904012714 84 284 5.0 13.0 0.00 0.00 0.00 14 1000.9
20260904012210 84 242 4.0 13.0 0.00 0.00 0.00 14 1001.0
20260904011704 84 262 3.0 13.0 0.00 0.00 0.00 14 1001.1
20260904011201 84 262 4.0 13.0 0.00 0.00 0.00 14 1001.0
20260904010642 84 257 5.0 14.0 0.00 0.00 0.00 14 1001.1
20260904005538 84 270 4.0 15.0 0.00 0.00 0.00 14 1001.2
20260904005024 84 253 5.0 15.0 0.00 0.00 0.00 14 1001.2
20260904004510 84 252 3.0 15.0 0.00 0.00 0.00 15 1001.3
20260904003959 84 261 3.0 9.0 0.00 0.00 0.00 15 1001.3
20260904003455 84 262 3.0 10.0 0.00 0.00 0.00 15 1001.3
20260904003000 84 246 3.0 10.0 0.00 0.00 0.00 15 1001.2
20260904002445 84 251 3.0 10.0 0.00 0.00 0.00 15 1001.2
20260904001929 84 179 3.0 8.0 0.00 0.00 0.00 15 1001.2
20260904000752 85 202 4.0 14.0 0.00 0.00 0.00 15 1001.3
20260904000240 85 147 4.0 15.0 0.00 0.00 0.00 14 1001.3
20260903235133 86 239 6.0 22.0 0.00 0.00 0.00 14 1001.5
20260903234629 86 159 7.0 22.0 0.00 0.00 0.00 14 1001.3
20260903234135 87 258 6.0 22.0 0.00 0.00 0.00 14 1001.3
20260903233643 87 278 6.0 17.0 0.00 0.00 0.00 13 1001.4
20260903233133 86 241 7.0 22.0 0.00 0.00 0.00 13 1001.5
20260903232633 86 157 8.0 22.0 0.00 0.00 0.00 13 1001.6
20260903232134 87 172 9.0 22.0 0.00 0.00 0.00 13 1001.7
20260903231641 86 253 9.0 22.0 0.00 0.00 0.00 12 1001.7
20260903231127 87 232 7.0 22.0 0.00 0.00 0.00 13 1001.7
20260903230612 87 197 7.0 22.0 0.00 0.00 0.00 13 1001.9
20260903230121 86 275 8.0 22.0 0.00 0.00 0.00 12 1001.9
20260903225625 86 227 8.0 19.0 0.00 0.00 0.00 12 1001.9
20260903225123 86 230 8.0 18.0 0.00 0.00 0.00 12 1002.0
20260903224629 86 266 7.0 18.0 0.00 0.00 0.00 13 1002.1
20260903224116 86 243 8.0 19.0 0.00 0.00 0.00 12 1002.2
20260903223615 86 189 8.0 19.0 0.00 0.00 0.00 12 1002.3
20260903223120 87 274 8.0 19.0 0.00 0.00 0.00 13 1002.3
20260903222624 86 166 7.0 19.0 0.00 0.00 0.00 11 1002.4
20260903222114 86 173 7.0 16.0 0.00 0.00 0.00 13 1002.3
20260903221609 87 263 6.0 16.0 0.00 0.00 0.00 13 1002.5
20260903221115 87 261 5.0 15.0 0.00 0.00 0.00 13 1002.5
20260903220618 87 168 5.0 17.0 0.00 0.00 0.00 12 1002.6
20260903220113 87 215 6.0 17.0 0.00 0.00 0.00 13 1002.6
20260903215603 87 154 5.0 17.0 0.00 0.00 0.00 12 1002.7
20260903214458 86 142 5.0 15.0 0.00 0.00 0.00 13 1002.9
20260903214002 86 244 5.0 16.0 0.00 0.00 0.00 13 1003.1
20260903213455 86 255 5.0 16.0 0.00 0.00 0.00 14 1003.0
20260903213005 86 232 7.0 21.0 0.00 0.00 0.00 13 1003.1
20260903212509 86 265 7.0 21.0 0.00 0.00 0.00 12 1003.2
20260903212003 86 294 5.0 21.0 0.00 0.00 0.00 12 1003.1
20260903211451 86 171 5.0 21.0 0.00 0.00 0.00 12 1003.0
20260903210945 86 270 5.0 12.0 0.00 0.00 0.00 13 1003.3
20260903210436 86 249 4.0 13.0 0.00 0.00 0.00 13 1003.5
20260903205944 86 184 4.0 13.0 0.00 0.00 0.00 13 1003.6
20260903205432 86 224 4.0 16.0 0.00 0.00 0.00 13 1003.5
20260903204930 85 161 6.0 16.0 0.00 0.00 0.00 13 1003.6
20260903204434 85 185 6.0 16.0 0.00 0.00 0.00 13 1003.8
20260903203917 85 171 5.0 16.0 0.00 0.00 0.00 13 1003.8
20260903202751 85 195 6.0 19.0 0.00 0.00 0.00 14 1004.1
20260903200948 85 216 4.0 17.0 0.00 0.00 0.00 14 1004.3
20260903195157 84 176 6.0 17.0 0.00 0.00 0.00 14 1004.5
20260903194648 85 266 4.0 16.0 0.00 0.00 0.00 14 1004.4
20260903194143 84 110 4.0 16.0 0.00 0.00 0.00 15 1004.6
20260903193625 84 213 3.0 14.0 0.00 0.00 0.00 14 1004.6
20260903193108 84 201 4.0 14.0 0.00 0.00 0.00 15 1004.6
20260903192617 84 158 5.0 14.0 0.00 0.00 0.00 15 1004.8
20260903190844 83 268 5.0 18.0 0.00 0.00 0.00 16 1005.1
20260903190339 83 255 5.0 18.0 0.00 0.00 0.00 14 1005.1
20260903184600 81 141 6.0 17.0 0.00 0.00 0.00 15 1005.3
20260903184057 81 204 5.0 17.0 0.00 0.00 0.00 14 1005.5
20260903183543 81 215 6.0 17.0 0.00 0.00 0.00 23 1005.7
20260903182433 81 149 5.0 13.0 0.00 0.00 0.00 15 1005.6
20260903181922 81 244 4.0 13.0 0.00 0.00 0.00 15 1005.9
20260903181413 81 264 3.0 13.0 0.00 0.00 0.00 15 1006.0
20260903180902 81 227 3.0 12.0 0.00 0.00 0.00 15 1006.1
20260903180402 81 261 4.0 14.0 0.00 0.00 0.00 16 1006.2
20260903175851 81 152 4.0 14.0 0.00 0.00 0.00 15 1006.2